Location: Samoth
(37.3328°N, 88.7876°W)
Time: 12:30:53
(UTC+00:00)

CZ-4B R/B - Pass Details

Date: 29 October 2020
Orbit: 808 x 882 km, 99.1° (Epoch: 04 December)

Event Time Altitude Azimuth Distance (km) Brightness Sun altitude
Rises 23:25:57 0° 168° (SSE) 3,455 6.4 -5.8°
Reaches altitude 10° 23:28:21 10° 170° (S) 2,514 5.7 -6.3°
Maximum altitude 23:33:57 77° 257° (WSW) 887 3.5 -7.4°
Drops below altitude 10° 23:39:29 10° 343° (NNW) 2,487 5.7 -8.5°
Sets 23:41:51 0° 345° (NNW) 3,415 6.4 -8.9°
